Torna al catalogo

CZ-3B R/B

AttivoHEO
NORAD 52256·ROCKET BODY·🇨🇳 China

Lanciato Apr 15, 2022 da Xichang Satellite Launch Center

Loading…

Prossimi Passaggi (prossime 24 ore)

TLE

AggiornatoSource: Space-Track

Epoca: Sep 14, 2026, 17:31 UTC

1 52256U 22038B   26257.73043724  .00093847 -25129-6  99659-3 0  9995
2 52256  28.0840 102.0233 5477871  10.7428 357.4262  4.97652325 54748

Traccia CZ-3B R/B in tempo reale con AllMySat

Download on the App Store